FW6259 Weather Reports


time (UTC)temp
C
wind
direction
speed
KPH
gust
KPH
rain 1hr
cm
rain 24hr
cm
rain mn
cm
humidity
%
barometer
mb
20260507074558 4 164 8.0 27.4 0.00 0.00 0.00 70 1018.1
20260507073049 4 177 9.7 22.5 0.00 0.00 0.00 71 1018.0
20260507071545 3 130 9.7 22.5 0.00 0.00 0.00 71 1018.0
20260507070057 3 195 8.0 24.1 0.00 0.00 0.00 72 1017.9
20260507064610 3 193 8.0 16.1 0.00 0.00 0.00 72 1017.8
20260507063051 3 209 8.0 22.5 0.00 0.00 0.00 71 1017.6
20260507061503 4 219 6.4 16.1 0.00 0.00 0.00 70 1017.6
20260507060058 4 182 6.4 20.9 0.00 0.00 0.00 70 1017.5
20260507054600 4 152 9.7 29.0 0.00 0.00 0.00 70 1017.4
20260507053100 5 199 9.7 22.5 0.00 0.00 0.00 69 1017.3
20260507051556 5 161 12.9 27.4 0.00 0.00 0.00 68 1017.0
20260507050046 5 152 12.9 25.7 0.00 0.00 0.00 66 1017.0
20260507044502 5 239 8.0 20.9 0.00 0.00 0.00 67 1016.7
20260507043100 5 173 8.0 22.5 0.00 0.00 0.00 66 1016.6
20260507041600 6 232 16.1 33.8 0.00 0.00 0.00 65 1016.6
20260507040045 6 151 9.7 27.4 0.00 0.00 0.00 64 1016.6
20260507034612 6 132 8.0 29.0 0.00 0.00 0.00 63 1016.5
20260507033055 6 195 11.3 22.5 0.00 0.00 0.00 63 1016.5
20260507031549 6 191 12.9 25.7 0.00 0.00 0.00 62 1016.2
20260507030158 7 155 12.9 30.6 0.00 0.00 0.00 61 1016.0
20260507024601 7 219 11.3 29.0 0.00 0.00 0.00 62 1015.9
20260507023103 7 231 9.7 25.7 0.00 0.00 0.00 61 1015.7
20260507021601 7 169 12.9 29.0 0.00 0.00 0.00 60 1015.5
20260507020059 8 220 14.5 29.0 0.00 0.00 0.00 59 1015.5
20260507014605 8 209 12.9 35.4 0.00 0.00 0.00 59 1015.3
20260507013006 8 178 6.4 22.5 0.00 0.00 0.00 62 1015.1
20260507011559 8 182 16.1 29.0 0.00 0.00 0.00 60 1015.2
20260507010051 8 155 12.9 32.2 0.00 0.00 0.00 63 1015.1
20260507004542 8 210 8.0 20.9 0.00 0.00 0.00 62 1015.0
20260507003101 8 136 14.5 29.0 0.00 0.00 0.00 61 1015.1
20260507001609 8 196 14.5 25.7 0.00 0.00 0.00 59 1015.1
20260507000048 7 207 9.7 24.1 0.00 0.00 0.00 60 1015.2
20260506234502 7 167 8.0 27.4 0.00 0.00 0.00 63 1015.2
20260506233102 9 218 9.7 27.4 0.00 0.00 0.00 59 1015.0
20260506231552 8 160 14.5 32.2 0.00 0.00 0.00 59 1014.8
20260506230042 7 188 9.7 20.9 0.00 0.00 0.00 62 1014.9
20260506224601 8 147 11.3 22.5 0.00 0.00 0.00 57 1014.8
20260506223102 8 217 9.7 30.6 0.00 0.00 0.00 61 1014.8
20260506221603 8 229 9.7 20.9 0.00 0.00 0.00 62 1014.9
20260506220047 8 148 11.3 27.4 0.00 0.00 0.00 61 1015.0
20260506214503 8 146 8.0 20.9 0.00 0.00 0.00 65 1014.9
20260506213056 7 181 14.5 29.0 0.00 0.00 0.00 66 1015.0
20260506211550 7 237 11.3 25.7 0.00 0.00 0.00 67 1014.9
20260506210046 7 181 8.0 25.7 0.00 0.00 0.00 69 1015.1
20260506204503 6 153 16.1 29.0 0.00 0.00 0.00 74 1015.1
20260506203055 5 140 8.0 20.9 0.00 0.00 0.00 79 1015.1
20260506201550 5 165 9.7 22.5 0.00 0.00 0.00 79 1015.2
20260506200148 5 262 9.7 24.1 0.00 0.00 0.00 80 1015.1
20260506194609 5 210 8.0 24.1 0.00 0.00 0.00 80 1014.9
20260506193047 5 172 12.9 29.0 0.00 0.00 0.00 78 1014.8
20260506191503 5 221 9.7 16.1 0.00 0.00 0.00 81 1014.6
20260506190056 4 247 12.9 22.5 0.00 0.00 0.00 82 1014.7
20260506184553 4 235 8.0 17.7 0.00 0.00 0.00 83 1014.7
20260506183003 4 262 11.3 19.3 0.00 0.00 0.00 82 1014.6
20260506181502 4 245 8.0 19.3 0.00 0.00 0.00 82 1014.5
20260506180053 4 237 8.0 16.1 0.00 0.00 0.00 83 1014.5
20260506174549 4 263 8.0 14.5 0.00 0.00 0.00 82 1014.6
20260506173124 4 228 8.0 16.1 0.00 0.00 0.00 81 1014.6
20260506171600 4 235 8.0 14.5 0.00 0.00 0.00 81 1014.6
20260506170049 4 198 4.8 17.7 0.00 0.00 0.00 80 1014.6
20260506164545 4 198 8.0 17.7 0.00 0.00 0.00 79 1014.4
20260506163103 4 270 6.4 20.9 0.00 0.00 0.00 80 1014.3
20260506161559 4 168 4.8 19.3 0.00 0.00 0.00 80 1014.1
20260506160144 3 247 4.8 16.1 0.00 0.00 0.00 80 1014.1
20260506154558 3 185 4.8 12.9 0.00 0.03 0.00 82 1014.1
20260506153052 3 274 4.8 14.5 0.00 0.03 0.00 83 1014.0
20260506151545 3 141 6.4 19.3 0.00 0.03 0.00 83 1014.1
20260506150043 3 219 6.4 19.3 0.00 0.03 0.00 83 1013.9
20260506144557 3 229 8.0 20.9 0.00 0.03 0.00 83 1013.9
20260506143047 3 169 8.0 20.9 0.00 0.03 0.00 83 1013.8
20260506141502 3 181 6.4 16.1 0.00 0.03 0.00 81 1013.6
20260506140052 3 162 6.4 20.9 0.00 0.03 0.00 82 1013.5
20260506134516 3 204 8.0 19.3 0.00 0.03 0.00 81 1013.4
20260506133100 3 210 4.8 17.7 0.00 0.03 0.00 80 1013.3
20260506131607 3 255 4.8 22.5 0.00 0.03 0.00 80 1013.1
20260506130045 3 179 6.4 12.9 0.00 0.03 0.00 79 1013.0
20260506124609 3 221 6.4 17.7 0.00 0.10 0.00 79 1012.9
20260506123049 3 207 6.4 22.5 0.00 0.10 0.00 79 1013.0
20260506121504 3 184 12.9 32.2 0.00 0.10 0.00 78 1012.9
20260506114649 3 155 6.4 12.9 0.00 0.10 0.00 77 1012.7
20260506113047 3 222 4.8 20.9 0.00 0.10 0.00 77 1012.7
20260506111659 3 216 1.6 19.3 0.00 0.10 0.00 77 1012.6
20260506110053 3 115 4.8 20.9 0.00 0.10 0.00 78 1012.6
20260506104547 3 210 8.0 19.3 0.00 0.10 0.00 78 1012.5
20260506103107 3 178 8.0 17.7 0.00 0.10 0.00 79 1012.6
20260506101551 3 224 3.2 22.5 0.00 0.10 0.00 79 1012.4
20260506100048 3 194 8.0 14.5 0.00 0.10 0.00 80 1012.3
20260506094559 3 198 8.0 16.1 0.00 0.10 0.00 81 1012.1
20260506093054 3 217 4.8 17.7 0.00 0.10 0.00 81 1012.2
20260506091551 3 165 6.4 22.5 0.00 0.10 0.00 80 1012.2
20260506090059 3 169 6.4 17.7 0.00 0.10 0.00 80 1011.9
20260506084601 3 243 3.2 16.1 0.00 0.10 0.00 81 1011.8
20260506083108 3 229 1.6 14.5 0.00 0.10 0.00 83 1011.5
20260506081502 3 154 11.3 20.9 0.00 0.10 0.00 83 1011.5